STARLINK-1151, 45081

Orbit data source: Space-Track

STARLINK-1151, 45081 is a payload satellite owned by SpaceX/Seattle (US) in LEO that was launched on Wed, 29 Jan 2020 UTC via an FALCON 9 launch vehicle from the Air Force Eastern Test Range (AFETR). Payload-class satellites include a variety of spacecraft equipped with specific instruments for various scientific and technological missions. These include communications satellites like Starlink; space stations such as the ISS; scientific satellites like the Hubble; Earth observation satellites from companies like Planet Labs, Umbra, and HawkEye 360; GPS; miniature CubeSats for education and research; and military/defense satellites.

Loading next visibility...
Identifier
45081, 2020-006AP
Orbit
LEO
Last TLE update
19 hours ago
Origin
Manufacturer
SpaceX/Seattle
Mission
Operational Commercial Communications
Bus & Motor
STARLINK, Unknown motor
Mass
260 kg wet, ~248 kg dry
Launch date (UTC)
2020-01-29 (5 years ago)
Launch vehicle
FALCON 9
Launch site
Air Force Eastern Test Range (AFETR)
Object type
Payload
Rocket body
Debris
Shape & HBR
Box + 1 Pan, 8.86 m
Radar Cross Section
13.562 m², Large (>1 m²)

Expand to show TLE details & history

TLE from 19 hours ago
0 STARLINK-1151
1 45081U 20006AP  25128.50550523 -.00000474  00000-0 -12934-4 0  9999
2 45081  53.0546 196.7183 0001350  81.3725 278.7417 15.06398554290747
Epoch: 2025-05-08T12:07Z
Definitive object data (Epoch: 2025-05-08T12:07:55.651Z)
Latitude
-0.00003°
Longitude
148.16136°
Altitude
547.953 km
Speed
7.589 km/s
True Right ascension
13h 06m 52s
True Declination
0° 00' 00"
Sunlit
Object was in full shadow at TLE epoch
Visualization TLE readout
Latitude
-42.35955°
Longitude
7.68846°
Altitude
562.191 km
Speed
7.58 km/s
Apparent Right ascension
03h 18m 27s
Apparent Declination
-41° 12' 25"
Sunlit
Object is in daylight
Visualization observer readout
Local Sidereal Time
14:50:38
Azimuth
254.024° W
Elevation
-84.563°
Doppler factor
1
Orbital elements
Apogee altitude
548.422 km
Perigee altitude
546.552 km
Semi-major axis
6,925.624 km
Eccentricity
0.000135
Inclination
53.0546°
RAAN
196.7183°
Arg. of periapsis
81.3725°
True anomaly
278.72641°
Mean anomaly
278.7417°
Eccentric anomaly
278.73405°
Mean motion
3.76578 °/min
BSTAR
-0.000012934
Orbital period
95.6 mins
Loading maneuver chart data...
Loading SW <> Apogee altitude chart data...
Loading historical data...
Loading historical data...
Loading historical data...
Loading historical data...
Loading historical data...
Loading historical data...
Loading historical data...

STARLINK-1151 Visibility forecast

Observer location: undefined°, undefined°

Span
Click to sort rows by Start time (UTC) header in descending order
Start Az.
Max El. time (UTC)
Max El. Az.
Max El.
End time (UTC)
End Az.
7 mins2025-05-09 07:25:45.502Z236.593° WSW2025-05-09 07:28:45.502Z294.796° NW43.83°2025-05-09 07:32:45.502Z47.243° ENE
4 mins2025-05-09 09:07:45.502Z316.576° NNW2025-05-09 09:08:45.502Z335.483° NNW18.251°2025-05-09 09:11:45.502Z25.183° NE
5 mins2025-05-09 12:28:45.502Z346.92° N2025-05-09 12:30:45.502Z27.525° NE21.259°2025-05-09 12:33:45.502Z76.201° E
6 mins2025-05-09 14:07:45.502Z305.295° NW2025-05-09 14:10:45.502Z177.286° S43.524°2025-05-09 14:13:45.502Z137.31° SSE
4 mins2025-05-10 05:41:45.502Z159.323° S2025-05-10 05:43:45.502Z121.331° SE18.723°2025-05-10 05:45:45.502Z87.841° E
|